Time,TemperatureF,DewpointF,PressureIn,WindDirection,WindDirectionDegrees,WindSpeedMPH,WindSpeedGustMPH,Humidity,HourlyPrecipIn,Conditions,Clouds,dailyrainin,SoftwareType,DateUTC
2013-07-06 00:06:00,80.7,76.0,29.96,East,79,1.0,4.0,84,0.00,,,0.00,weatherlink.com 1.10,2013-07-06 04:06:00,
2013-07-06 00:22:00,80.6,75.0,29.95,ENE,76,0.0,6.0,84,0.00,,,0.00,weatherlink.com 1.10,2013-07-06 04:22:00,
2013-07-06 00:37:00,80.3,75.0,29.95,NE,49,3.0,5.0,84,0.00,,,0.00,weatherlink.com 1.10,2013-07-06 04:37:00,
2013-07-06 00:52:00,80.3,75.0,29.95,ENE,78,6.0,6.0,83,0.00,,,0.00,weatherlink.com 1.10,2013-07-06 04:52:00,
2013-07-06 01:06:00,80.6,75.0,29.94,ESE,107,2.0,7.0,82,0.00,,,0.00,weatherlink.com 1.10,2013-07-06 05:06:00,
2013-07-06 01:22:00,80.3,75.0,29.94,ESE,110,0.0,3.0,84,0.00,,,0.00,weatherlink.com 1.10,2013-07-06 05:22:00,
2013-07-06 01:36:00,80.2,75.0,29.93,East,96,2.0,3.0,84,0.00,,,0.00,weatherlink.com 1.10,2013-07-06 05:36:00,
2013-07-06 01:51:00,80.4,75.0,29.93,ESE,103,0.0,3.0,84,0.00,,,0.00,weatherlink.com 1.10,2013-07-06 05:51:00,
2013-07-06 02:07:00,80.2,75.0,29.93,East,92,0.0,1.0,84,0.00,,,0.00,weatherlink.com 1.10,2013-07-06 06:07:00,
2013-07-06 02:21:00,79.9,75.0,29.92,ESE,122,0.0,2.0,86,0.00,,,0.00,weatherlink.com 1.10,2013-07-06 06:21:00,
2013-07-06 02:37:00,79.5,75.0,29.92,ESE,107,1.0,3.0,86,0.00,,,0.00,weatherlink.com 1.10,2013-07-06 06:37:00,
2013-07-06 02:52:00,79.4,75.0,29.92,ESE,120,0.0,1.0,86,0.00,,,0.00,weatherlink.com 1.10,2013-07-06 06:52:00,
2013-07-06 03:07:00,79.0,75.0,29.91,ESE,122,0.0,3.0,87,0.00,,,0.00,weatherlink.com 1.10,2013-07-06 07:07:00,
2013-07-06 03:22:00,79.1,75.0,29.91,ESE,102,0.0,3.0,86,0.00,,,0.00,weatherlink.com 1.10,2013-07-06 07:22:00,
2013-07-06 03:37:00,79.1,75.0,29.91,SE,146,0.0,2.0,86,0.00,,,0.00,weatherlink.com 1.10,2013-07-06 07:37:00,
2013-07-06 03:52:00,79.0,75.0,29.92,SE,131,1.0,2.0,86,0.00,,,0.00,weatherlink.com 1.10,2013-07-06 07:52:00,
2013-07-06 04:07:00,79.1,75.0,29.92,ESE,117,0.0,2.0,86,0.00,,,0.00,weatherlink.com 1.10,2013-07-06 08:07:00,
2013-07-06 04:22:00,79.4,75.0,29.92,East,86,4.0,6.0,85,0.00,,,0.00,weatherlink.com 1.10,2013-07-06 08:22:00,
2013-07-06 04:37:00,79.7,74.0,29.92,East,96,1.0,9.0,83,0.00,,,0.00,weatherlink.com 1.10,2013-07-06 08:37:00,
2013-07-06 04:52:00,79.5,74.0,29.92,East,88,2.0,6.0,84,0.00,,,0.00,weatherlink.com 1.10,2013-07-06 08:52:00,
2013-07-06 05:07:00,79.6,74.0,29.92,East,98,4.0,5.0,84,0.00,,,0.00,weatherlink.com 1.10,2013-07-06 09:07:00,
2013-07-06 05:22:00,79.4,74.0,29.93,East,79,4.0,6.0,83,0.00,,,0.00,weatherlink.com 1.10,2013-07-06 09:22:00,
2013-07-06 05:37:00,79.5,74.0,29.93,ESE,119,3.0,8.0,84,0.00,,,0.00,weatherlink.com 1.10,2013-07-06 09:37:00,
2013-07-06 05:52:00,79.7,75.0,29.93,ESE,107,3.0,4.0,84,0.00,,,0.00,weatherlink.com 1.10,2013-07-06 09:52:00,
2013-07-06 06:07:00,79.8,75.0,29.93,ENE,68,2.0,4.0,84,0.00,,,0.00,weatherlink.com 1.10,2013-07-06 10:07:00,
2013-07-06 06:22:00,79.9,74.0,29.94,East,79,1.0,4.0,83,0.00,,,0.00,weatherlink.com 1.10,2013-07-06 10:22:00,
2013-07-06 06:37:00,79.3,75.0,29.95,SE,127,1.0,6.0,86,0.07,,,0.07,weatherlink.com 1.10,2013-07-06 10:37:00,
2013-07-06 06:52:00,79.4,75.0,29.95,East,94,1.0,3.0,87,0.07,,,0.07,weatherlink.com 1.10,2013-07-06 10:52:00,
2013-07-06 07:07:00,80.2,75.0,29.95,SE,125,5.0,7.0,85,0.07,,,0.07,weatherlink.com 1.10,2013-07-06 11:07:00,
2013-07-06 07:22:00,80.1,75.0,29.95,ESE,121,0.0,6.0,85,0.07,,,0.07,weatherlink.com 1.10,2013-07-06 11:22:00,
2013-07-06 07:37:00,80.3,75.0,29.96,SE,124,2.0,9.0,83,0.00,,,0.07,weatherlink.com 1.10,2013-07-06 11:37:00,
2013-07-06 07:52:00,80.6,75.0,29.96,East,89,1.0,8.0,82,0.00,,,0.07,weatherlink.com 1.10,2013-07-06 11:52:00,
2013-07-06 08:07:00,81.1,74.0,29.96,NE,38,5.0,12.0,80,0.00,,,0.07,weatherlink.com 1.10,2013-07-06 12:07:00,
2013-07-06 08:22:00,81.6,75.0,29.97,East,83,6.0,10.0,79,0.00,,,0.07,weatherlink.com 1.10,2013-07-06 12:22:00,
2013-07-06 08:37:00,82.6,75.0,29.96,NE,50,7.0,9.0,77,0.00,,,0.07,weatherlink.com 1.10,2013-07-06 12:37:00,
2013-07-06 08:52:00,82.5,74.0,29.97,East,90,3.0,12.0,75,0.00,,,0.07,weatherlink.com 1.10,2013-07-06 12:52:00,
2013-07-06 09:07:00,83.0,75.0,29.97,NNE,30,4.0,11.0,77,0.00,,,0.07,weatherlink.com 1.10,2013-07-06 13:07:00,
2013-07-06 09:22:00,83.4,75.0,29.97,East,89,5.0,12.0,75,0.00,,,0.07,weatherlink.com 1.10,2013-07-06 13:22:00,
2013-07-06 09:37:00,83.7,75.0,29.97,ENE,73,5.0,13.0,74,0.00,,,0.07,weatherlink.com 1.10,2013-07-06 13:37:00,
2013-07-06 09:52:00,83.0,75.0,29.97,East,95,4.0,13.0,76,0.00,,,0.07,weatherlink.com 1.10,2013-07-06 13:52:00,
2013-07-06 10:07:00,83.3,75.0,29.97,East,97,7.0,11.0,75,0.00,,,0.07,weatherlink.com 1.10,2013-07-06 14:07:00,
2013-07-06 10:22:00,84.3,74.0,29.97,ENE,73,4.0,13.0,72,0.00,,,0.07,weatherlink.com 1.10,2013-07-06 14:22:00,
2013-07-06 10:37:00,84.2,74.0,29.97,ENE,72,4.0,12.0,72,0.00,,,0.07,weatherlink.com 1.10,2013-07-06 14:37:00,
2013-07-06 10:52:00,85.3,75.0,29.97,NE,34,6.0,11.0,70,0.00,,,0.07,weatherlink.com 1.10,2013-07-06 14:52:00,
2013-07-06 11:07:00,85.3,75.0,29.97,NE,51,4.0,16.0,71,0.00,,,0.07,weatherlink.com 1.10,2013-07-06 15:07:00,
2013-07-06 11:22:00,85.6,75.0,29.97,East,80,5.0,12.0,71,0.00,,,0.07,weatherlink.com 1.10,2013-07-06 15:22:00,
2013-07-06 11:37:00,85.9,76.0,29.96,NE,53,6.0,15.0,71,0.00,,,0.07,weatherlink.com 1.10,2013-07-06 15:37:00,
2013-07-06 11:52:00,85.0,75.0,29.96,East,100,5.0,12.0,73,0.00,,,0.07,weatherlink.com 1.10,2013-07-06 15:52:00,
2013-07-06 12:07:00,85.0,76.0,29.96,NE,36,3.0,14.0,74,0.00,,,0.07,weatherlink.com 1.10,2013-07-06 16:07:00,
2013-07-06 12:22:00,85.2,76.0,29.95,East,87,9.0,12.0,73,0.00,,,0.07,weatherlink.com 1.10,2013-07-06 16:22:00,
2013-07-06 12:52:00,86.1,75.0,29.94,ESE,103,5.0,13.0,69,0.00,,,0.07,weatherlink.com 1.10,2013-07-06 16:52:00,
2013-07-06 13:07:00,86.3,75.0,29.94,ENE,70,8.0,14.0,70,0.00,,,0.07,weatherlink.com 1.10,2013-07-06 17:07:00,
2013-07-06 13:22:00,86.1,76.0,29.93,ESE,104,7.0,15.0,71,0.00,,,0.07,weatherlink.com 1.10,2013-07-06 17:22:00,
2013-07-06 13:35:00,86.2,74.4,29.93,ENE,78,7.0,7.0,68,0.00,,,0.00,Wunderground v.1.15,2013-07-06 17:35:00,
2013-07-06 13:40:00,86.4,74.6,29.93,ESE,122,7.0,11.0,68,0.00,,,0.00,Wunderground v.1.15,2013-07-06 17:40:00,
2013-07-06 13:50:00,85.9,75.4,29.92,East,79,6.0,11.0,71,0.00,,,0.00,Wunderground v.1.15,2013-07-06 17:50:00,
2013-07-06 14:00:00,84.7,75.1,29.92,ENE,70,6.0,11.0,73,0.00,,,0.00,Wunderground v.1.15,2013-07-06 18:00:00,
2013-07-06 14:09:00,84.2,76.0,29.91,East,80,6.0,10.0,75,0.00,,,0.00,weatherlink.com 1.10,2013-07-06 18:09:00,
2013-07-06 14:15:00,84.0,74.8,29.92,ENE,69,7.0,10.0,74,0.00,,,0.00,Wunderground v.1.15,2013-07-06 18:15:00,
2013-07-06 14:24:00,84.1,75.0,29.92,ESE,121,4.0,16.0,75,0.00,,,0.00,weatherlink.com 1.10,2013-07-06 18:24:00,
2013-07-06 14:30:00,84.0,76.0,29.92,SE,129,5.0,5.0,77,0.00,,,0.00,Wunderground v.1.15,2013-07-06 18:30:00,
2013-07-06 14:39:00,82.0,77.0,29.91,NE,44,3.0,11.0,84,0.03,,,0.03,weatherlink.com 1.10,2013-07-06 18:39:00,
2013-07-06 14:45:00,81.3,76.7,29.92,ENE,77,4.0,10.0,86,0.06,,,0.03,Wunderground v.1.15,2013-07-06 18:45:00,
2013-07-06 14:50:00,81.1,76.9,29.92,ESE,110,4.0,10.0,87,0.06,,,0.04,Wunderground v.1.15,2013-07-06 18:50:00,
2013-07-06 14:55:00,80.8,76.2,29.91,ENE,65,4.0,10.0,86,0.06,,,0.04,Wunderground v.1.15,2013-07-06 18:55:00,
2013-07-06 15:05:00,80.8,75.9,29.92,ENE,72,4.0,5.0,85,0.00,,,0.04,Wunderground v.1.15,2013-07-06 19:05:00,
2013-07-06 15:10:00,80.4,76.5,29.92,ESE,120,4.0,7.0,88,1.02,,,0.09,Wunderground v.1.15,2013-07-06 19:10:00,
2013-07-06 15:20:00,79.1,75.9,29.91,East,82,1.0,5.0,90,0.19,,,0.19,Wunderground v.1.15,2013-07-06 19:20:00,
2013-07-06 15:25:00,78.9,76.0,29.91,East,94,1.0,5.0,91,0.07,,,0.19,Wunderground v.1.15,2013-07-06 19:25:00,
2013-07-06 15:35:00,79.4,76.9,29.90,ESE,111,1.0,5.0,92,0.00,,,0.19,Wunderground v.1.15,2013-07-06 19:35:00,
2013-07-06 15:40:00,79.3,76.4,29.91,East,95,1.0,1.0,91,0.00,,,0.19,Wunderground v.1.15,2013-07-06 19:40:00,
2013-07-06 15:50:00,79.7,77.2,29.90,ENE,66,0.0,5.0,92,0.00,,,0.19,Wunderground v.1.15,2013-07-06 19:50:00,
2013-07-06 15:55:00,79.9,77.0,29.90,NE,51,0.0,5.0,91,0.00,,,0.19,Wunderground v.1.15,2013-07-06 19:55:00,
2013-07-06 16:05:00,80.7,77.5,29.90,ESE,110,1.0,3.0,90,0.00,,,0.19,Wunderground v.1.15,2013-07-06 20:05:00,
2013-07-06 16:10:00,81.4,78.2,29.89,NE,51,1.0,3.0,90,0.00,,,0.19,Wunderground v.1.15,2013-07-06 20:10:00,
2013-07-06 16:20:00,81.7,76.4,29.89,ENE,63,3.0,6.0,84,0.00,,,0.19,Wunderground v.1.15,2013-07-06 20:20:00,
2013-07-06 16:25:00,82.2,76.5,29.89,East,85,4.0,6.0,83,0.00,,,0.19,Wunderground v.1.15,2013-07-06 20:25:00,
2013-07-06 16:35:00,82.8,76.7,29.88,ENE,63,4.0,5.0,82,0.00,,,0.19,Wunderground v.1.15,2013-07-06 20:35:00,
2013-07-06 16:40:00,83.3,76.5,29.88,ENE,69,5.0,5.0,80,0.00,,,0.19,Wunderground v.1.15,2013-07-06 20:40:00,
2013-07-06 16:50:00,82.9,76.1,29.88,ENE,58,6.0,9.0,80,0.00,,,0.19,Wunderground v.1.15,2013-07-06 20:50:00,
2013-07-06 16:55:00,80.9,74.9,29.89,ESE,107,7.0,9.0,82,1.71,,,0.29,Wunderground v.1.15,2013-07-06 20:55:00,
2013-07-06 17:10:00,76.3,73.0,29.89,ESE,117,7.0,11.0,89,0.22,,,0.41,weatherlink.com 1.10,2013-07-06 21:10:00,
2013-07-06 17:20:00,75.6,72.8,29.89,East,79,4.0,8.0,91,0.08,,,0.42,Wunderground v.1.15,2013-07-06 21:20:00,
2013-07-06 17:35:00,75.8,73.0,29.89,East,95,2.0,8.0,91,0.00,,,0.42,Wunderground v.1.15,2013-07-06 21:35:00,
2013-07-06 17:45:00,76.6,74.1,29.89,East,98,1.0,8.0,92,0.00,,,0.42,Wunderground v.1.15,2013-07-06 21:45:00,
2013-07-06 17:50:00,76.7,74.2,29.89,ESE,122,1.0,8.0,92,0.00,,,0.42,Wunderground v.1.15,2013-07-06 21:50:00,
2013-07-06 18:00:00,77.0,74.5,29.89,ESE,107,1.0,1.0,92,0.00,,,0.42,Wunderground v.1.15,2013-07-06 22:00:00,
2013-07-06 18:05:00,77.3,74.5,29.89,East,100,1.0,3.0,91,0.00,,,0.42,Wunderground v.1.15,2013-07-06 22:05:00,
2013-07-06 18:25:00,78.2,75.0,29.88,East,97,1.0,3.0,90,0.00,,,0.42,Wunderground v.1.15,2013-07-06 22:25:00,
2013-07-06 18:30:00,78.2,74.7,29.89,East,89,2.0,2.0,89,0.00,,,0.42,Wunderground v.1.15,2013-07-06 22:30:00,
2013-07-06 18:40:00,78.2,74.7,29.89,East,90,1.0,3.0,89,0.00,,,0.42,Wunderground v.1.15,2013-07-06 22:40:00,
2013-07-06 18:45:00,78.2,74.7,29.90,NE,49,2.0,3.0,89,0.00,,,0.42,Wunderground v.1.15,2013-07-06 22:45:00,
2013-07-06 18:55:00,77.6,75.0,29.90,NNE,31,1.0,5.0,90,0.00,,,0.42,weatherlink.com 1.10,2013-07-06 22:55:00,
2013-07-06 19:00:00,77.4,74.6,29.90,NE,45,2.0,2.0,91,0.00,,,0.42,Wunderground v.1.15,2013-07-06 23:00:00,
2013-07-06 19:05:00,77.5,74.7,29.90,East,93,1.0,2.0,91,0.00,,,0.42,Wunderground v.1.15,2013-07-06 23:05:00,
2013-07-06 19:20:00,77.2,74.4,29.90,NE,53,0.0,0.0,91,0.00,,,0.42,Wunderground v.1.15,2013-07-06 23:20:00,
2013-07-06 19:25:00,77.2,75.0,29.90,NE,53,0.0,1.0,91,0.00,,,0.42,weatherlink.com 1.10,2013-07-06 23:25:00,
2013-07-06 19:35:00,77.4,74.9,29.90,ENE,59,0.0,0.0,92,0.00,,,0.42,Wunderground v.1.15,2013-07-06 23:35:00,
2013-07-06 19:40:00,77.6,75.1,29.91,ESE,103,1.0,2.0,92,0.93,,,0.48,Wunderground v.1.15,2013-07-06 23:40:00,
2013-07-06 19:50:00,76.8,74.3,29.91,East,91,3.0,3.0,92,0.40,,,0.61,Wunderground v.1.15,2013-07-06 23:50:00,
2013-07-06 19:56:00,76.3,74.0,29.91,SE,130,4.0,5.0,93,0.19,,,0.61,weatherlink.com 1.10,2013-07-06 23:56:00,
2013-07-06 20:05:00,76.5,74.3,29.91,East,98,2.0,3.0,93,0.05,,,0.62,Wunderground v.1.15,2013-07-07 00:05:00,
2013-07-06 20:11:00,76.6,75.0,29.91,East,96,1.0,5.0,93,0.20,,,0.62,weatherlink.com 1.10,2013-07-07 00:11:00,
2013-07-06 20:20:00,76.5,74.3,29.92,SSE,148,1.0,3.0,93,0.00,,,0.62,Wunderground v.1.15,2013-07-07 00:20:00,
2013-07-06 20:25:00,76.5,74.3,29.92,ENE,65,2.0,3.0,93,0.00,,,0.62,Wunderground v.1.15,2013-07-07 00:25:00,
2013-07-06 20:35:00,76.3,73.8,29.92,East,79,3.0,6.0,92,0.00,,,0.62,Wunderground v.1.15,2013-07-07 00:35:00,
2013-07-06 20:40:00,76.2,74.0,29.92,East,85,2.0,2.0,93,0.00,,,0.62,Wunderground v.1.15,2013-07-07 00:40:00,
2013-07-06 20:51:00,76.2,74.0,29.91,East,86,0.0,1.0,93,0.00,,,0.62,Wunderground v.1.15,2013-07-07 00:51:00,
2013-07-06 21:00:00,76.1,73.9,29.91,East,86,0.0,1.0,93,0.00,,,0.62,Wunderground v.1.15,2013-07-07 01:00:00,
2013-07-06 21:05:00,76.1,73.9,29.91,East,86,0.0,1.0,93,0.00,,,0.62,Wunderground v.1.15,2013-07-07 01:05:00,
2013-07-06 21:11:00,76.1,74.0,29.91,East,86,0.0,1.0,94,0.00,,,0.62,weatherlink.com 1.10,2013-07-07 01:11:00,
2013-07-06 21:20:00,76.1,74.2,29.92,East,86,0.0,0.0,94,0.00,,,0.62,Wunderground v.1.15,2013-07-07 01:20:00,
2013-07-06 21:25:00,76.1,74.2,29.92,East,86,0.0,0.0,94,0.00,,,0.62,Wunderground v.1.15,2013-07-07 01:25:00,
2013-07-06 21:35:00,76.6,74.7,29.93,ESE,115,1.0,2.0,94,0.14,,,0.72,Wunderground v.1.15,2013-07-07 01:35:00,
2013-07-06 21:40:00,76.6,74.7,29.93,East,100,2.0,2.0,94,0.11,,,0.73,Wunderground v.1.15,2013-07-07 01:40:00,
2013-07-06 21:45:00,76.4,74.5,29.93,SSE,156,1.0,2.0,94,0.11,,,0.74,Wunderground v.1.15,2013-07-07 01:45:00,
2013-07-06 21:50:00,76.4,74.5,29.93,SSE,158,1.0,1.0,94,0.07,,,0.74,Wunderground v.1.15,2013-07-07 01:50:00,
2013-07-06 21:55:00,76.3,74.4,29.93,SE,129,1.0,1.0,94,0.04,,,0.74,Wunderground v.1.15,2013-07-07 01:55:00,
2013-07-06 22:05:00,76.5,74.6,29.93,East,91,1.0,2.0,94,0.09,,,0.79,Wunderground v.1.15,2013-07-07 02:05:00,
2013-07-06 22:12:00,76.6,75.0,29.93,East,91,0.0,2.0,94,0.17,,,0.79,weatherlink.com 1.10,2013-07-07 02:12:00,
2013-07-06 22:20:00,76.4,74.5,29.93,East,91,0.0,2.0,94,0.04,,,0.79,Wunderground v.1.15,2013-07-07 02:20:00,
2013-07-06 22:25:00,76.4,74.5,29.93,East,91,0.0,2.0,94,0.00,,,0.79,Wunderground v.1.15,2013-07-07 02:25:00,
2013-07-06 22:35:00,76.2,74.3,29.93,East,91,0.0,2.0,94,0.00,,,0.79,Wunderground v.1.15,2013-07-07 02:35:00,
2013-07-06 22:40:00,76.2,74.3,29.93,East,92,0.0,2.0,94,0.00,,,0.79,Wunderground v.1.15,2013-07-07 02:40:00,
2013-07-06 22:45:00,76.1,74.2,29.93,East,92,0.0,2.0,94,0.00,,,0.79,Wunderground v.1.15,2013-07-07 02:45:00,
2013-07-06 22:55:00,76.1,74.6,29.92,SE,130,1.0,2.0,95,0.00,,,0.79,Wunderground v.1.15,2013-07-07 02:55:00,
2013-07-06 23:05:00,76.0,74.1,29.93,SE,141,1.0,2.0,94,0.00,,,0.79,Wunderground v.1.15,2013-07-07 03:05:00,
2013-07-06 23:10:00,75.9,74.0,29.93,SE,136,0.0,1.0,94,0.00,,,0.79,Wunderground v.1.15,2013-07-07 03:10:00,
2013-07-06 23:15:00,75.9,74.0,29.93,SE,136,0.0,1.0,94,0.00,,,0.79,Wunderground v.1.15,2013-07-07 03:15:00,
2013-07-06 23:20:00,75.7,73.8,29.93,SE,136,0.0,1.0,94,0.00,,,0.79,Wunderground v.1.15,2013-07-07 03:20:00,
2013-07-06 23:28:00,75.5,74.0,29.93,SE,136,0.0,1.0,95,0.00,,,0.79,weatherlink.com 1.10,2013-07-07 03:28:00,
2013-07-06 23:43:00,75.4,74.0,29.93,SE,136,0.0,1.0,95,0.00,,,0.79,weatherlink.com 1.10,2013-07-07 03:43:00,
2013-07-06 23:58:00,75.3,74.0,29.93,SE,136,1.0,1.0,95,0.00,,,0.79,weatherlink.com 1.10,2013-07-07 03:58:00,